Regional Weather Roundup
Issued by NWS

Home | Current Version | Previous Version | Graphics & Text | Print | Product List | Glossary On
Versions: 1 2 3 4 5 6 7 8 9 10 11 12 13 14 15 16 17 18 19 20 21 22 23 24 25 26 27
000
ASUS45 KCYS 181810
RWRWY

WYOMING REGIONAL WEATHER ROUNDUP
NATIONAL WEATHER SERVICE CHEYENNE WY
1100 AM MST SUN FEB 18 2018

NOTE:  "FAIR" INDICATES FEW OR NO CLOUDS BELOW 12,000 FEET
WITH NO SIGNIFICANT WEATHER AND/OR OBSTRUCTIONS TO VISIBILITY.

WYZ001-181900-
YELLOWSTONE NATIONAL PARK

CITY           SKY/WX    TMP DP  RH WIND       PRES   REMARKS
LK YELLOWSTONE   N/A     21  19  92 VRB7      29.42R WCI  12
6HR MIN TEMP:  21; 6HR MAX TEMP:  24; 6HR PCP:  0.31;

W YELLOWSTONE  NOT AVBL

$$
WYZ002>013-054>058-071-098>099-181900-
NORTHERN WYOMING

CITY           SKY/WX    TMP DP  RH WIND       PRES   REMARKS
JACKSON        CLOUDY    29  22  75 S20G25    29.47F WCI  16
CODY           LGT SNOW  10   5  79 NW15G21   29.64R VSB 3/4 WCI  -6
GREYBULL       SNOW      13  10  88 NW37G44   29.60R VSB 1/4 WCI -10
6HR MIN TEMP:  13; 6HR MAX TEMP:  36; 6HR PCP:  0.03;

WORLAND        CLOUDY    16  11  80 N13       29.64R WCI   2
6HR MIN TEMP:  16; 6HR MAX TEMP:  33; 6HR PCP: TRACE;

SHERIDAN       SNOW       8   4  83 NW17      29.76R VSB 1/2 WCI -10
6HR MIN TEMP:   8; 6HR MAX TEMP:  26; 6HR PCP:  0.16;

BUFFALO        HVY SNOW   9   5  84 N21       29.64R VSB 1/4 WCI -11
6HR MIN TEMP:   9; 6HR MAX TEMP:  29; 6HR PCP:  0.03;

GILLETTE       FOG       12   8  84 N22       29.67R VSB 1/2 WCI  -7
6HR MIN TEMP:  12; 6HR MAX TEMP:  30; 6HR PCP:  0.08;

HULETT         LGT SNOW  14  10  85 MISG      29.67R
NEWCASTLE      FAIR      23  18  80 N24G31    29.55S WCI   7

$$
WYZ014>020-022>026-101>103-181900-
CENTRAL WYOMING

CITY           SKY/WX    TMP DP  RH WIND       PRES   REMARKS
BIG PINEY      CLOUDY    30  19  63 NW25G32   29.52S WCI  16
6HR MIN TEMP:  27; 6HR MAX TEMP:  37; 6HR PCP: TRACE;

PINEDALE       CLOUDY    30  19  64 W18G28    29.53R WCI  18
DUBOIS         NOT AVBL
LANDER         LGT SNOW  33  30  88 N6        29.43R VSB 1   WCI  28
6HR MIN TEMP:  34; 6HR MAX TEMP:  44; 6HR PCP: TRACE;

RIVERTON       LGT SNOW  28  22  78 N17       29.44R WCI  16
6HR MIN TEMP:  28; 6HR MAX TEMP:  44; 6HR PCP: TRACE;

CASPER         PTSUNNY   21  15  78 N17       29.55R WCI   7
6HR MIN TEMP:  21; 6HR MAX TEMP:  41;

DOUGLAS        CLOUDY    35  27  72 NE10      29.52S WCI  27
6HR MIN TEMP:  31; 6HR MAX TEMP:  47;


$$
WYZ021-027>030-104>119-181900-
SOUTHERN WYOMING

CITY           SKY/WX    TMP DP  RH WIND       PRES   REMARKS
EVANSTON       FLURRIES  36  23  59 W24G37    29.53F WCI  24
6HR MIN TEMP:  36; 6HR MAX TEMP:  40; 6HR PCP: TRACE;

FORT BRIDGER   MOCLDY    45  16  31 W40G52    29.54
ROCK SPRINGS   CLOUDY    44  14  29 SW20G28   29.50F
6HR MIN TEMP:  36; 6HR MAX TEMP:  44;

DIXON          FAIR      42  21  42 SW14      29.61F
RAWLINS        PTSUNNY   42  16  34 SW32G49   29.51S
6HR MIN TEMP:  35; 6HR MAX TEMP:  44;

SARATOGA       FAIR      45  16  31 SW36G44   29.54F
LARAMIE        FAIR      48  12  23 SW41G52   29.49S
6HR MIN TEMP:  32; 6HR MAX TEMP:  48;

CHEYENNE       FAIR      57   7  13 W24G32    29.50F
6HR MIN TEMP:  30; 6HR MAX TEMP:  58;

TORRINGTON     FAIR      50  26  39 N13       29.46F
6HR MIN TEMP:  43; 6HR MAX TEMP:  60;

PINE BLUFFS    FAIR      59  10  14 S6        29.49F

$$




USA.gov is the U.S. government's official web portal to all federal, state and local government web resources and services.